Simultaneous Nadir Overpasses (SNOs) Predictions

Prediction of SNOs between AQUA and METOP-B Satellite Orbit:

Table of predicted SNOs for the next 14.0 days since TLE Epoch: 4/16/2022
Index Date (AQUA) Time (AQUA) Lat,Lon (AQUA) SZA (AQUA ) Date (METOP-B) Time (METOP-B) Lat,Lon (METOP-B) SZA (METOP-B ) Distance(km) Time Diff (sec)
1 04/16/2022 22:33:56 -73.85, 16.06 116.54 04/16/2022 22:32:55 -73.86, 16.05 116.52 1.59 61
2 04/16/2022 23:23:25 73.94,-176.50 63.54 04/16/2022 23:23:34 73.91,-176.49 63.52 2.75 9
3 04/17/2022 00:12:58 -74.33, -9.76 116.06 04/17/2022 00:14:07 -74.33, -8.12 116.10 49.26 69
4 04/19/2022 18:07:54 -73.86, 82.57 117.52 04/19/2022 18:07:17 -73.87, 82.47 117.50 3.27 37
5 04/19/2022 18:57:23 73.95,-110.01 62.57 04/19/2022 18:57:55 73.97,-109.95 62.59 2.46 32
6 04/22/2022 12:52:15 73.35, -17.47 61.00 04/22/2022 12:51:08 73.29, -19.78 61.02 74.33 67
7 04/22/2022 13:41:51 -73.89, 149.01 118.44 04/22/2022 13:41:37 -73.92, 149.00 118.42 2.53 14
8 04/22/2022 14:31:19 73.94, -43.47 61.61 04/22/2022 14:32:16 73.97, -43.55 61.62 3.29 57
9 04/25/2022 08:26:21 73.85, 48.00 60.59 04/25/2022 08:25:18 73.88, 47.99 60.63 3.66 63
10 04/25/2022 09:15:48 -73.91,-144.51 119.35 04/25/2022 09:15:59 -73.91,-144.60 119.35 2.96 11
11 04/25/2022 10:05:22 74.28, 22.28 61.03 04/25/2022 10:06:32 74.25, 23.58 60.96 39.06 70
12 04/28/2022 04:00:18 73.90, 114.40 59.74 04/28/2022 03:59:39 73.91, 114.49 59.76 2.89 39
13 04/28/2022 04:49:45 -73.96, -78.09 120.21 04/28/2022 04:50:20 -73.95, -78.11 120.22 1.82 35



Historial Predications of SNOs between AQUA and METOP-B
